www.pogodaiklimat.ru

АРХИВ ПОГОДЫ в Филадельфии

Время (UTC), дата Ветер
(напр.,м/с)
 
Видим.   Явления Облачность Т
(С)
Тd
(С)
f
(%)
Тe
(С)
Тes
(С)
Комфортность

P
(гПа)

Po
(гПа)
Тmin
(С)
Tmax
(С)
R
(мм)
SD
(см)
13:54 19.09 СВ  7
{11} 
16 км    8/8 480 м
[средняя] 
+23.0  +19.0  78  +29  +29  очень
душно 
1015.1  1014.9         
14:05 19.09 С  8
{14} 
16 км    8/5 510 м
[средняя] 
+23.9  +18.9  74  +29  +29  душно    1014.9         
14:54 19.09 СВ  10
{11} 
16 км    8/5 750 м
[средняя] 
+26.1  +18.3  62  +31  +31  очень
душно 
  1014.2         
15:54 19.09 СВ  8
{14} 
16 км    8/8 900 м
[средняя] 
+25.6  +17.8  62  +30  +30  душно    1013.9         
16:54 19.09 СВ  16 км    8/8 960 м
[средняя] 
+25.0  +18.0  65  +29  +30  душно  1013.7  1013.5         
17:54 19.09 С  5
{10} 
16 км    10/8 1050 м
[средняя] 
+26.0  +18.0  61  +30  +31  душно  1012.9  1012.5  +22.2  +26.7     
18:35 19.09 СВ  6
{10} 
13 км  слабый дождь  10/8 1050 м
[средняя] 
+23.9  +17.8  69  +28  +28  душно    1012.2         
18:54 19.09 СВ  13 км  слабый дождь  10/8 1050 м
[средняя] 
+23.9  +18.9  74  +29  +29  душно    1012.2         
19:54 19.09 В  11 км  слабый дождь  10/5 1500 м
[средняя] 
+23.9  +18.9  74  +29  +30  душно  1011.8  1011.5         
20:54 19.09 С  6
{12} 
14 км    10/5 1290 м
[средняя] 
+25.6  +17.2  60  +30  +30  душно    1011.5         
21:27 19.09 С  8
{11} 
10 км  слабый дождь  10/10 1230 м  +24.0  +19.0  74  +29  +29  душно    1011.5         
21:54 19.09 нст  10 км  слабый дождь  10/10 1230 м  +22.8  +19.4  81  +29  +29  очень
душно 
1011.8  1011.5         
22:01 19.09 СВ  13 км    10/10 1110 м  +23.0  +19.0  78  +29  +29  очень
душно 
  1011.5         
22:34 19.09 СВ  8 км  слабый дождь  10/10 990 м  +22.2  +19.4  84  +28  +28  душно    1011.5         
22:40 19.09 СВ  3 км  сильный дождь, дымка  10/10 1050 м  +21.7  +19.4  87  +27  +27  душно    1011.5         
22:46 19.09 СВ  4
{10} 
8 км  слабый дождь, дымка  10/10 900 м  +21.7  +19.4  87  +27  +27  душно    1011.5         
22:54 19.09 СВ  4
{10} 
10 км  слабый дождь, дымка  10/10 900 м  +21.7  +19.4  87  +27  +27  душно  1011.7  1011.5         
23:01 19.09 СВ  4
{9} 
4 км  слабый дождь, дымка  10/10 900 м  +21.7  +19.4  87  +27  +27  душно    1011.2         
23:10 19.09 СВ  11 км  слабый дождь  10/10 900 м  +21.1  +19.4  90  +26  +26  душно    1011.2         
23:25 19.09 С  5
{8} 
16 км    10/10 900 м  +23.0  +19.0  78  +29  +29  очень
душно 
  1011.2         
23:54 19.09 С  16 км    10/10 1230 м  +23.3  +18.9  76  +30  +30  очень
душно 
1011.3  1011.2  +21.1  +26.1  1.8   
00:54 20.09 С  10
{14} 
16 км    10/10 1050 м  +24.0  +18.0  69  +28  +28  душно  1011.7  1011.5         
01:41 20.09 СВ  8
{13} 
13 км  слабый дождь  10/10 840 м  +22.2  +18.3  79  +27  +27  душно    1011.5         
01:54 20.09 С  7
{12} 
16 км    10/10 840 м  +22.8  +18.3  76  +28  +28  душно  1011.9  1011.5         
02:54 20.09 С  16 км    10/10 450 м  +22.0  +18.0  78  +27  +27  душно  1011.5  1011.2         
03:54 20.09 С  6
{11} 
16 км    10/8 840 м
[средняя] 
+22.0  +18.0  78  +27  +27  душно  1011.3  1011.2         
04:17 20.09 С  6
{10} 
16 км    5/5 1410 м
[средняя] 
+22.0  +18.0  78  +27  +27  душно    1010.8         
04:54 20.09 С  16 км    8/2 1410 м
[средняя] 
+22.0  +18.0  78  +27  +27  душно  1010.7  1010.5         
05:54 20.09 С  16 км    10/2 750 м
[средняя верхняя] 
+22.0  +17.0  73  +26  +26  душно  1010.8  1010.5  +21.7  +23.9     
06:54 20.09 С  16 км    8/0 3600 м
[средняя верхняя] 
+22.0  +17.0  73  +26  +26  душно  1010.7  1010.5         
07:54 20.09 С  16 км    10/8 810 м
[средняя] 
+22.0  +17.0  73  +26  +26  душно  1010.5  1010.1         
08:05 20.09 С  16 км    10/8 810 м
[средняя] 
+21.7  +17.2  76  +26  +26  душно    1010.5         
08:44 20.09 С  16 км    8/2 810 м
[средняя] 
+21.7  +17.2  76  +26  +26  душно    1010.1         
08:54 20.09 С  16 км    5/2 810 м
[средняя] 
+22.0  +17.0  73  +26  +26  душно  1010.3  1010.1         
09:54 20.09 С  16 км    2/2 1350 м
[средняя] 
+21.7  +16.7  73  +26  +26  душно  1011.1  1010.8         
10:54 20.09 С  16 км    5/0 2400 м
[средняя верхняя] 
+22.0  +17.0  73  +26  +26  душно  1011.9  1011.5         
11:54 20.09 СЗ  16 км    5/0 2400 м
[средняя верхняя] 
+22.0  +17.0  73  +26  +26  душно  1012.3  1012.2  +21.1  +22.2     
12:54 20.09 С  16 км    8/0 2400 м
[средняя верхняя] 
+22.0  +17.0  73  +26  +26  душно  1012.6  1012.5         
13:54 20.09 С  16 км    5/0 2400 м
[средняя верхняя] 
+24.0  +17.0  65  +28  +28  душно  1012.7  1012.5         
14:54 20.09 С  6
{10} 
16 км    5/2 960 м
[средняя верхняя] 
+26.0  +18.0  61  +30  +32  душно  1012.8  1012.5         
15:54 20.09 С  7
{10} 
16 км    5/2 1050 м
[средняя верхняя] 
+27.0  +18.0  58  +32  +33  очень
душно 
1012.4  1012.2         
16:54 20.09 С  6
{9} 
16 км    5/2 1080 м
[средняя верхняя] 
+28.0  +18.0  55  +33  +35  очень
душно 
1012.3  1012.2         
17:54 20.09 С  16 км    8/5 1200 м
[средняя верхняя] 
+29.0  +19.0  55  +34  +36  очень
душно 
1012.1  1011.8  +21.7  +29.4     
18:54 20.09 С  6
{10} 
16 км    8/5 1320 м
[верхняя] 
+29.4  +18.3  51  +34  +36  очень
душно 
1011.7  1011.5         
19:54 20.09 С  16 км    5/2 1440 м
[верхняя] 
+30.0  +16.7  45  +34  +36  очень
душно 
  1011.2         
20:54 20.09 С  16 км    5/2 1650 м
[верхняя] 
+30.0  +16.0  43  +33  +34  душно  1011.8  1011.5         
21:54 20.09 С  4
{10} 
16 км    5/2 1650 м
[верхняя] 
+29.0  +16.0  45  +32  +33  душно  1012.3  1012.2         
22:54 20.09 СВ  4
{9} 
16 км    5/2 1500 м
[верхняя] 
+27.0  +18.0  58  +32  +32  очень
душно 
1012.6  1012.2         

 

Местоположение метеостанции Philadelphia International Airport: широта 39.8733 долгота -75.2268 высота над уровнем моря 2 м.

В архиве по умолчанию представлена погода в Филадельфии за последние 1-2 суток. Обновление информации о фактической погоде в базе происходит ежечасно! Архивные данные за месяц целиком и за предыдущие месяцы Вы можете получить, выбрав интересующий диапазон дат из раскрывающегося списка и нажав кнопку "Ввод!".

Внимание! Архив погоды МЕТАР в базе сайта в настоящее время начинается c 1 января 2013 г. Нет смысла пытаться выбрать более раннюю дату.

Внимание! Время в таблицах - всемирное. Для получения местного времени необходимо прибавить поправку, которая в Филадельфии равна -5 ч.

Ветер - указаны скорость ветра в м/с и направление, откуда дует ветер: С - северный, СВ - северо-восточный, В - восточный, ЮВ - юго-восточный, Ю - южный, ЮЗ - юго-западный, З - западный, СЗ - северо-западный.
Видимость - горизонтальная дальность видимости в метрах или километрах. При видимости от 1 до 10 км при отсутствии осадков обычно наблюдается дымка, при ухудшении видимости до 1 км и менее - туман. В сухую погоду видимость может ухудшаться дымом, пылью или мглою.
Атмосферные явления - указаны явления, наблюдавшиеся в указанный момент времени.
Облачность - указаны через наклонную черту верхняя и нижняя облачность в баллах и высота нижней границы облаков в метрах. Внимание: облачность, как и прочие метеорологические величины в США измеряются автоматическими метеостанциями. Указанные значения в баллах носят условный характер и показывают процент времени, в течение которого, в среднем, лазерный луч высотомера отражался от облаков обратно.
T - Температура воздуха - температура, измеренная на высоте 2 м над землей.
Td - Температура точки росы - температура, при понижении до которой содержащийся в воздухе водяной пар достигнет насыщения.
f - Относительная влажность воздуха - влажноcть воздуха, измеренная на высоте 2 м над землей.
Te - Эффективная температура - температура, которую ощущает одетый по сезону человек в тени. Характеристика душности погоды. При расчете учитывается влияние влажности воздуха и скорости ветра на теплоощущения человека.
Tes - Эффективная температура на солнце - температура, которую ощущает человек, с поправкой на солнечный нагрев. Характеристика знойности погоды. Зависит от высоты солнца над горизонтом, облачности и скорости ветра. Ночью, в пасмурную погоду, а также при ветре 12 м/с и более поправка равна нулю.
P - Атмосферное давление - приведенное к уровню моря атмосферное давление.
Po - Атмосферное давление - измеренное на уровне метеостанции атмосферное давление.
Tmin - Минимальная температура - минимум температуры воздуха на высоте 2 м над землей.
Tmax - Максимальная температура - максимум температуры воздуха на высоте 2 м над землей.
R - Количество осадков - Количество выпавших осадков за 3 или 6 часов, мм.
SD - Снежный покров - Высота снежного покрова, см.